McGregor, MN

12:21 AM CDT on August 26, 2016 (GMT -0500)
McGregor

Weather History for KHZX - May, 2014

Change the Weather History Date:

Monday, May 12, 2014

  Actual Average (KAIT) Record (KAIT)
Temperature  
Mean Temperature 44 °F -  
Max Temperature 50 °F 63 °F 89 °F (1977)
Min Temperature 37 °F 39 °F 26 °F (1967)
Degree Days  
Heating Degree Days 22    
Moisture  
Dew Point 41 °F    
Average Humidity 93    
Maximum Humidity 100    
Minimum Humidity 82    
Precipitation  
Precipitation 0.68 in - - ()
Sea Level Pressure  
Sea Level Pressure 29.80 in    
Wind  
Wind Speed 8 mph (ENE)    
Max Wind Speed 22 mph    
Max Gust Speed 26 mph    
Visibility 5 miles    
Events      
Averages and records for this station are not official NWS values.
T = Trace of Precipitation, MM = Missing Value Source: NWS Daily Summary

Daily Weather History Graph

Daily Weather History Graph

Search for Another Location

Airport or City:

Trip Planner

Search our weather history database for the weather conditions in past years. The results will help you decide how hot, cold, wet, or windy it might be!

Date:

Astronomy

May. 12, 2014 Rise Set
Actual Time 5:42 AM CDT 8:37 PM CDT
Civil Twilight 5:07 AM CDT 9:12 PM CDT
Nautical Twilight 4:22 AM CDT 9:57 PM CDT
Astronomical Twilight 3:29 AM CDT 10:51 PM CDT
Moon 6:28 PM CDT (5/12) 4:31 AM CDT (5/12)
Length of Visible Light 16h 04m
Length of Day
14h 54m
Waxing Gibbous, 95% of the Moon is Illuminated
May 12
Waxing Gibbous
May 14
Full
May 21
Last Quarter
May 28
New
Jun 5
First Quarter

Hourly Weather History & Observations

Time (CDT) Temp. Windchill Dew Point Humidity Pressure Visibility Wind Dir Wind Speed Gust Speed Precip Events Conditions
12:08 AM 50.0 °F - 44.6 °F 82% 29.88 in 10.0 mi North 5.8 mph - N/A   Overcast
12:28 AM 50.0 °F - 44.6 °F 82% 29.87 in 10.0 mi North 6.9 mph - N/A   Overcast
12:49 AM 50.0 °F - 44.6 °F 82% 29.89 in 10.0 mi NNW 3.5 mph - N/A   Overcast
1:08 AM 50.0 °F - 44.6 °F 82% 29.88 in 7.0 mi North 4.6 mph - 0.04 in   Overcast
1:28 AM 48.2 °F - 44.6 °F 87% 29.87 in 10.0 mi North 4.6 mph - 0.08 in   Overcast
1:48 AM 48.2 °F - 44.6 °F 87% 29.86 in 10.0 mi NNE 4.6 mph - 0.09 in   Overcast
2:08 AM 48.2 °F - 44.6 °F 87% 29.86 in 10.0 mi NNE 6.9 mph - 0.02 in   Overcast
2:29 AM 48.2 °F - 44.6 °F 87% 29.85 in 10.0 mi NNE 4.6 mph - 0.07 in   Overcast
2:48 AM 46.4 °F 44.3 °F 44.6 °F 93% 29.85 in 10.0 mi NE 4.6 mph - 0.09 in   Overcast
3:08 AM 46.4 °F 43.5 °F 44.6 °F 93% 29.84 in 7.0 mi NE 5.8 mph - 0.03 in   Overcast
3:28 AM 46.4 °F 42.4 °F 44.6 °F 93% 29.82 in 7.0 mi NE 8.1 mph - 0.07 in   Overcast
3:48 AM 46.4 °F 41.1 °F 44.6 °F 93% 29.81 in 10.0 mi ENE 11.5 mph - 0.08 in   Overcast
4:08 AM 46.4 °F 40.4 °F 44.6 °F 93% 29.80 in 7.0 mi ENE 13.8 mph 19.6 mph 0.02 in   Overcast
4:28 AM 46.4 °F 38.5 °F 44.6 °F 93% 29.78 in 5.0 mi East 21.9 mph 26.5 mph 0.03 in   Overcast
4:48 AM 46.4 °F 40.1 °F 44.6 °F 93% 29.80 in 5.0 mi ENE 15.0 mph 21.9 mph 0.04 in   Overcast
5:09 AM 46.4 °F 40.7 °F 44.6 °F 93% 29.79 in 10.0 mi ENE 12.7 mph 18.4 mph N/A   Overcast
5:28 AM 46.4 °F 39.8 °F 44.6 °F 93% 29.78 in 4.0 mi ENE 16.1 mph 24.2 mph 0.13 in   Overcast
5:48 AM 46.4 °F 40.7 °F 44.6 °F 93% 29.78 in 10.0 mi ENE 12.7 mph 18.4 mph 0.14 in   Overcast
6:08 AM 46.4 °F 41.1 °F 44.6 °F 93% 29.78 in 10.0 mi NE 11.5 mph 17.3 mph N/A   Overcast
6:28 AM 46.4 °F 41.9 °F 44.6 °F 93% 29.78 in 10.0 mi ENE 9.2 mph - N/A   Overcast
6:49 AM 46.4 °F 42.4 °F 44.6 °F 93% 29.79 in 5.0 mi ENE 8.1 mph 17.3 mph N/A   Overcast
7:08 AM 44.6 °F 39.2 °F 44.6 °F 100% 29.79 in 5.0 mi East 10.4 mph - N/A   Overcast
7:28 AM 44.6 °F 38.8 °F 44.6 °F 100% 29.78 in 4.0 mi ENE 11.5 mph 16.1 mph 0.01 in   Overcast
7:48 AM 44.6 °F 38.8 °F 42.8 °F 93% 29.78 in 5.0 mi ENE 11.5 mph - 0.01 in   Overcast
8:08 AM 44.6 °F 38.8 °F 42.8 °F 93% 29.79 in 2.5 mi East 11.5 mph 18.4 mph 0.01 in   Overcast
8:29 AM 44.6 °F 38.8 °F 42.8 °F 93% 29.80 in 2.0 mi East 11.5 mph 17.3 mph 0.02 in   Overcast
9:09 AM 44.6 °F 39.2 °F 42.8 °F 93% 29.79 in 2.5 mi East 10.4 mph 16.1 mph N/A   Overcast
9:28 AM 44.6 °F 38.4 °F 42.8 °F 93% 29.79 in 2.5 mi East 12.7 mph - 0.01 in   Overcast
9:48 AM 42.8 °F 36.2 °F 42.8 °F 100% 29.80 in 1.8 mi East 12.7 mph - 0.02 in   Overcast
10:08 AM 42.8 °F 37.0 °F 42.8 °F 100% 29.80 in 3.0 mi East 10.4 mph 16.1 mph N/A   Overcast
10:28 AM 42.8 °F 36.2 °F 42.8 °F 100% 29.80 in 2.5 mi East 12.7 mph 18.4 mph N/A   Overcast
10:49 AM 42.8 °F 37.0 °F 41.0 °F 93% 29.80 in 4.0 mi East 10.4 mph - N/A   Overcast
11:08 AM 42.8 °F 37.0 °F 41.0 °F 93% 29.82 in 5.0 mi East 10.4 mph - N/A   Overcast
11:28 AM 42.8 °F 36.6 °F 41.0 °F 93% 29.82 in 4.0 mi East 11.5 mph - N/A   Overcast
11:48 AM 42.8 °F 36.6 °F 41.0 °F 93% 29.82 in 2.5 mi East 11.5 mph 19.6 mph N/A   Overcast
12:08 PM 42.8 °F 35.8 °F 41.0 °F 93% 29.80 in 4.0 mi East 13.8 mph 18.4 mph N/A   Overcast
12:29 PM 41.0 °F 35.8 °F 41.0 °F 100% 29.80 in 3.0 mi East 8.1 mph - N/A   Overcast
12:48 PM 41.0 °F 36.4 °F 41.0 °F 100% 29.81 in 3.0 mi ENE 6.9 mph - N/A   Overcast
1:08 PM 41.0 °F 33.9 °F 39.2 °F 93% 29.81 in 3.0 mi East 12.7 mph - N/A   Overcast
1:29 PM 41.0 °F 36.4 °F 39.2 °F 93% 29.81 in 2.5 mi ENE 6.9 mph - N/A   Overcast
1:48 PM 41.0 °F 34.7 °F 39.2 °F 93% 29.80 in 2.5 mi ENE 10.4 mph - 0.01 in   Overcast
2:28 PM 42.8 °F 38.6 °F 41.0 °F 93% 29.79 in 5.0 mi ENE 6.9 mph - N/A   Overcast
2:48 PM 42.8 °F 36.6 °F 41.0 °F 93% 29.79 in 5.0 mi ENE 11.5 mph - N/A   Overcast
3:08 PM 41.0 °F 35.2 °F 41.0 °F 100% 29.80 in 5.0 mi East 9.2 mph - N/A   Overcast
3:28 PM 41.0 °F 35.8 °F 41.0 °F 100% 29.80 in 3.0 mi East 8.1 mph - N/A   Overcast
3:48 PM 41.0 °F 35.2 °F 41.0 °F 100% 29.80 in 2.5 mi East 9.2 mph - N/A   Overcast
4:08 PM 41.0 °F 34.7 °F 39.2 °F 93% 29.80 in 1.2 mi ENE 10.4 mph - N/A   Overcast
4:28 PM 41.0 °F 36.4 °F 39.2 °F 93% 29.82 in 1.5 mi East 6.9 mph - N/A   Overcast
4:49 PM 41.0 °F 35.8 °F 37.4 °F 87% 29.80 in 1.8 mi East 8.1 mph - 0.01 in   Overcast
5:08 PM 39.2 °F 32.5 °F 37.4 °F 93% 29.80 in 3.0 mi East 10.4 mph - N/A   Overcast
5:28 PM 39.2 °F 34.2 °F 37.4 °F 93% 29.81 in 2.5 mi ENE 6.9 mph - 0.01 in   Overcast
5:48 PM 39.2 °F 33.6 °F 37.4 °F 93% 29.80 in 2.0 mi ENE 8.1 mph - 0.01 in   Overcast
6:08 PM 39.2 °F 34.2 °F 37.4 °F 93% 29.79 in 1.5 mi ENE 6.9 mph - N/A   Overcast
6:29 PM 37.4 °F 33.8 °F 37.4 °F 100% 29.78 in 2.0 mi ENE 4.6 mph - N/A   Overcast
6:48 PM 39.2 °F 35.0 °F 37.4 °F 93% 29.77 in 2.0 mi ENE 5.8 mph - 0.01 in   Overcast
7:08 PM 39.2 °F 35.9 °F 37.4 °F 93% 29.78 in 3.0 mi NNE 4.6 mph - N/A   Overcast
7:29 PM 39.2 °F 35.0 °F 37.4 °F 93% 29.78 in 2.5 mi ENE 5.8 mph - 0.04 in   Overcast
7:48 PM 39.2 °F 34.2 °F 37.4 °F 93% 29.77 in 4.0 mi ENE 6.9 mph - 0.08 in   Overcast
8:09 PM 39.2 °F - 37.4 °F 93% 29.77 in 4.0 mi Calm Calm - 0.01 in   Overcast
8:28 PM 39.2 °F - 37.4 °F 93% 29.79 in 5.0 mi Calm Calm - 0.02 in   Overcast
8:48 PM 39.2 °F - 37.4 °F 93% 29.79 in 4.0 mi Calm Calm - 0.04 in   Overcast
9:09 PM 39.2 °F - 37.4 °F 93% 29.78 in 4.0 mi Calm Calm - 0.01 in   Overcast
9:28 PM 39.2 °F - 37.4 °F 93% 29.78 in 4.0 mi Calm Calm - 0.02 in   Overcast
9:48 PM 39.2 °F - 37.4 °F 93% 29.77 in 4.0 mi Calm Calm - 0.03 in   Overcast
10:08 PM 39.2 °F - 37.4 °F 93% 29.77 in 5.0 mi Calm Calm - N/A   Overcast
10:28 PM 39.2 °F - 37.4 °F 93% 29.77 in 10.0 mi Calm Calm - N/A   Overcast
10:49 PM 39.2 °F - 37.4 °F 93% 29.78 in 10.0 mi Calm Calm - N/A   Overcast
11:08 PM 39.2 °F - 37.4 °F 93% 29.77 in 10.0 mi Calm Calm - N/A   Overcast
11:28 PM 39.2 °F - 37.4 °F 93% 29.77 in 10.0 mi Calm Calm - N/A   Overcast
11:48 PM 39.2 °F 37.0 °F 39.2 °F 100% 29.77 in 10.0 mi West 3.5 mph - N/A   Overcast